YETI07 LLBG-LLBG

Flight info

Callsign YETI07
Flight time 0h 54m
Altitude 38000
Route SUVAS L53 STEPA/N0481F400 N71 BIRES/N0480F410 Z89 PIKOG L609 ZUKKO
Aircraft B762/H-SDFGIRWY/S

Departure

Time 2026-05-06 19:32
Airport Ben Gurion International Airport (LLBG)

Arrival

Time 2026-05-06 20:26
Airport Ben Gurion International Airport (LLBG)
Time Latitude Longitude Altitude Speed Heading
2026-05-06 19:11 32.00817 34.86933 126 ft 0 kts 302°
2026-05-06 19:21 32.00811 34.86944 121 ft 2 kts 302°
2026-05-06 19:21 32.00802 34.86960 121 ft 2 kts 302°
2026-05-06 19:21 32.00794 34.86977 121 ft 2 kts 312°
2026-05-06 19:21 32.00779 34.86989 121 ft 3 kts 342°
2026-05-06 19:22 32.00758 34.86990 121 ft 3 kts 22°
2026-05-06 19:22 32.00744 34.86984 121 ft 0 kts 31°
2026-05-06 19:25 32.00745 34.86984 126 ft 2 kts 31°
2026-05-06 19:25 32.00775 34.87006 124 ft 5 kts 31°
2026-05-06 19:25 32.00815 34.87035 121 ft 12 kts 32°
2026-05-06 19:25 32.00922 34.87113 122 ft 19 kts 34°
2026-05-06 19:26 32.00938 34.87184 121 ft 10 kts 116°
2026-05-06 19:26 32.00868 34.87319 123 ft 28 kts 120°
2026-05-06 19:26 32.00761 34.87527 122 ft 29 kts 121°
2026-05-06 19:26 32.00691 34.87660 121 ft 27 kts 122°
2026-05-06 19:27 32.00589 34.87883 123 ft 13 kts 91°
2026-05-06 19:27 32.00619 34.87939 123 ft 12 kts 37°
2026-05-06 19:27 32.00693 34.87995 121 ft 18 kts 32°
2026-05-06 19:27 32.00851 34.88108 123 ft 33 kts 30°
2026-05-06 19:28 32.01099 34.88289 120 ft 30 kts 32°
2026-05-06 19:28 32.01265 34.88413 122 ft 27 kts 40°
2026-05-06 19:28 32.01354 34.88511 122 ft 25 kts 47°
2026-05-06 19:28 32.01468 34.88728 120 ft 22 kts 64°
2026-05-06 19:29 32.01494 34.88843 124 ft 21 kts 80°
2026-05-06 19:29 32.01500 34.88879 123 ft 0 kts 78°
2026-05-06 19:29 32.01500 34.88882 124 ft 4 kts 78°
2026-05-06 19:29 32.01523 34.89019 124 ft 28 kts 80°
2026-05-06 19:30 32.01553 34.89206 123 ft 12 kts 74°
2026-05-06 19:30 32.01604 34.89267 120 ft 9 kts 18°
2026-05-06 19:30 32.01672 34.89256 119 ft 11 kts 349°
2026-05-06 19:30 32.01752 34.89219 119 ft 9 kts 310°
2026-05-06 19:31 32.01757 34.89169 121 ft 5 kts 264°
2026-05-06 19:31 32.01740 34.89049 123 ft 47 kts 261°
2026-05-06 19:31 32.01376 34.86895 220 ft 213 kts 257°
2026-05-06 19:32 32.00994 34.85046 1089 ft 250 kts 253°
2026-05-06 19:32 32.00443 34.82831 1368 ft 313 kts 252°
2026-05-06 19:32 31.99787 34.80427 1271 ft 304 kts 251°
2026-05-06 19:32 31.99067 34.78146 1386 ft 285 kts 247°
2026-05-06 19:33 31.98358 34.76071 1761 ft 261 kts 247°
2026-05-06 19:33 31.97658 34.74137 2238 ft 262 kts 248°
2026-05-06 19:33 31.97042 34.72086 2323 ft 269 kts 252°
2026-05-06 19:33 31.96445 34.69978 2042 ft 270 kts 248°
2026-05-06 19:34 31.95695 34.67966 1829 ft 272 kts 249°
2026-05-06 19:34 31.95110 34.65902 2117 ft 259 kts 253°
2026-05-06 19:34 31.94505 34.63643 2600 ft 317 kts 254°
2026-05-06 19:34 31.93945 34.61008 4008 ft 344 kts 262°
2026-05-06 19:35 31.93721 34.58179 6045 ft 346 kts 268°
2026-05-06 19:35 31.93748 34.55267 7493 ft 370 kts 273°
2026-05-06 19:35 31.94025 34.52126 8324 ft 398 kts 279°
2026-05-06 19:35 31.94519 34.48970 8870 ft 381 kts 277°
2026-05-06 19:36 31.94202 34.45796 8561 ft 402 kts 246°
2026-05-06 19:36 31.92436 34.43454 8632 ft 384 kts 206°
2026-05-06 19:36 31.89866 34.43189 8731 ft 370 kts 162°
2026-05-06 19:36 31.87895 34.44953 10120 ft 359 kts 124°
2026-05-06 19:37 31.87020 34.47709 10865 ft 372 kts 98°
2026-05-06 19:37 31.86843 34.50797 12334 ft 381 kts 90°
2026-05-06 19:37 31.86815 34.54038 13406 ft 413 kts 94°
2026-05-06 19:37 31.86095 34.57414 14238 ft 440 kts 116°
2026-05-06 19:38 31.84656 34.60687 15376 ft 458 kts 121°
2026-05-06 19:38 31.83182 34.64033 16525 ft 478 kts 119°
2026-05-06 19:38 31.81567 34.67315 17289 ft 444 kts 130°
2026-05-06 19:38 31.79386 34.69687 17735 ft 420 kts 154°
2026-05-06 19:39 31.76774 34.71231 18401 ft 425 kts 159°
2026-05-06 19:39 31.74054 34.72776 18737 ft 445 kts 158°
2026-05-06 19:39 31.71335 34.74663 19374 ft 459 kts 149°
2026-05-06 19:39 31.68746 34.76760 19919 ft 439 kts 150°
2026-05-06 19:40 31.66334 34.78883 19468 ft 437 kts 142°
2026-05-06 19:40 31.64093 34.81307 18774 ft 440 kts 142°
2026-05-06 19:40 31.61869 34.83738 18702 ft 425 kts 141°
2026-05-06 19:40 31.59793 34.86078 19359 ft 412 kts 141°
2026-05-06 19:41 31.57708 34.88451 19746 ft 422 kts 140°
2026-05-06 19:41 31.55589 34.90861 19931 ft 426 kts 140°
2026-05-06 19:41 31.53460 34.93279 20010 ft 425 kts 140°
2026-05-06 19:41 31.51290 34.95600 20054 ft 419 kts 147°
2026-05-06 19:42 31.48888 34.97480 20073 ft 413 kts 156°
2026-05-06 19:42 31.46288 34.98853 20087 ft 408 kts 166°
2026-05-06 19:42 31.43560 34.99689 20088 ft 405 kts 175°
2026-05-06 19:42 31.40664 35.00025 20110 ft 428 kts 181°
2026-05-06 19:43 31.37678 35.00161 20110 ft 428 kts 183°
2026-05-06 19:43 31.34711 35.00505 20071 ft 430 kts 173°
2026-05-06 19:43 31.31837 35.01500 20074 ft 432 kts 164°
2026-05-06 19:43 31.29075 35.02929 20070 ft 439 kts 155°
2026-05-06 19:44 31.26547 35.04965 20071 ft 445 kts 143°
2026-05-06 19:44 31.24358 35.07544 20077 ft 449 kts 133°
2026-05-06 19:44 31.22411 35.10407 20074 ft 450 kts 130°
2026-05-06 19:44 31.20535 35.13342 20071 ft 451 kts 129°
2026-05-06 19:45 31.18688 35.16305 20064 ft 451 kts 129°
2026-05-06 19:45 31.16850 35.19279 20064 ft 451 kts 129°
2026-05-06 19:45 31.14955 35.22345 20085 ft 482 kts 129°
2026-05-06 19:45 31.12950 35.25572 20087 ft 495 kts 129°
2026-05-06 19:46 31.10932 35.28815 20073 ft 491 kts 129°
2026-05-06 19:46 31.08933 35.32027 20065 ft 489 kts 129°
2026-05-06 19:46 31.06932 35.35242 20058 ft 488 kts 129°
2026-05-06 19:46 31.04963 35.38402 20065 ft 488 kts 129°
2026-05-06 19:47 31.02964 35.41608 20062 ft 488 kts 129°
2026-05-06 19:47 31.00963 35.44815 20060 ft 488 kts 129°
2026-05-06 19:47 30.98966 35.48014 20068 ft 488 kts 129°
2026-05-06 19:47 30.96972 35.51206 20080 ft 488 kts 129°
2026-05-06 19:48 30.94968 35.54409 20085 ft 488 kts 129°
2026-05-06 19:48 30.92974 35.57600 20069 ft 487 kts 129°
2026-05-06 19:48 30.90978 35.60787 20103 ft 487 kts 129°
2026-05-06 19:48 30.89133 35.64112 20061 ft 492 kts 121°
2026-05-06 19:49 30.87772 35.67775 20067 ft 494 kts 111°
2026-05-06 19:49 30.86938 35.71666 20079 ft 498 kts 101°
2026-05-06 19:49 30.86644 35.75689 20085 ft 500 kts 91°
2026-05-06 19:49 30.86899 35.79727 20079 ft 501 kts 82°
2026-05-06 19:50 30.87684 35.83621 20087 ft 502 kts 72°
2026-05-06 19:50 30.89095 35.87382 20071 ft 501 kts 58°
2026-05-06 19:50 30.91145 35.90583 20103 ft 500 kts 45°
2026-05-06 19:50 30.93784 35.93200 20099 ft 497 kts 31°
2026-05-06 19:51 30.96829 35.95042 20100 ft 491 kts 17°
2026-05-06 19:51 31.00106 35.96046 20113 ft 486 kts
2026-05-06 19:51 31.03441 35.96744 20097 ft 487 kts
2026-05-06 19:51 31.06789 35.97368 20098 ft 486 kts
2026-05-06 19:52 31.10131 35.97963 20094 ft 486 kts
2026-05-06 19:52 31.13471 35.98544 20089 ft 486 kts
2026-05-06 19:52 31.16822 35.99121 20097 ft 486 kts
2026-05-06 19:52 31.20163 35.99696 20088 ft 486 kts
2026-05-06 19:53 31.23511 36.00275 20087 ft 485 kts
2026-05-06 19:53 31.26849 36.00854 20094 ft 486 kts
2026-05-06 19:53 31.30195 36.01436 20091 ft 486 kts
2026-05-06 19:53 31.33537 36.02020 20101 ft 486 kts
2026-05-06 19:54 31.36879 36.02610 20100 ft 485 kts
2026-05-06 19:54 31.40181 36.03120 20095 ft 482 kts 359°
2026-05-06 19:54 31.43554 36.03029 20112 ft 478 kts 352°
2026-05-06 19:54 31.46876 36.02732 20111 ft 478 kts 351°
2026-05-06 19:55 31.50144 36.02387 20109 ft 477 kts 350°
2026-05-06 19:55 31.53444 36.02019 20108 ft 477 kts 350°
2026-05-06 19:55 31.56788 36.01636 20106 ft 477 kts 349°
2026-05-06 19:55 31.60050 36.01262 20109 ft 477 kts 349°
2026-05-06 19:56 31.63351 36.00893 20105 ft 477 kts 351°
2026-05-06 19:56 31.66694 36.01018 20085 ft 487 kts
2026-05-06 19:56 31.69946 36.02200 20093 ft 496 kts 21°
2026-05-06 19:56 31.72883 36.04374 20109 ft 503 kts 37°
2026-05-06 19:57 31.75276 36.07399 20118 ft 509 kts 53°
2026-05-06 19:57 31.77069 36.10985 20128 ft 509 kts 58°
2026-05-06 19:57 31.79260 36.14228 20100 ft 506 kts 40°
2026-05-06 19:57 31.82091 36.16616 20104 ft 498 kts 24°
2026-05-06 19:58 31.85299 36.18008 20109 ft 489 kts
2026-05-06 19:58 31.88649 36.18332 20131 ft 479 kts 351°
2026-05-06 19:58 31.91869 36.17579 20142 ft 467 kts 335°
2026-05-06 19:58 31.94700 36.15833 20147 ft 455 kts 319°
2026-05-06 19:59 31.96914 36.13258 20152 ft 444 kts 302°
2026-05-06 19:59 31.98558 36.10208 20166 ft 440 kts 296°
2026-05-06 19:59 32.00061 36.07079 20143 ft 439 kts 295°
2026-05-06 19:59 32.01514 36.03925 20131 ft 438 kts 294°
2026-05-06 20:00 32.02942 36.00756 20117 ft 438 kts 294°
2026-05-06 20:00 32.04357 35.97579 20127 ft 437 kts 294°
2026-05-06 20:00 32.05769 35.94399 20089 ft 439 kts 294°
2026-05-06 20:00 32.07186 35.91191 19424 ft 442 kts 294°
2026-05-06 20:01 32.08591 35.87990 18773 ft 436 kts 294°
2026-05-06 20:01 32.09967 35.84840 18198 ft 428 kts 294°
2026-05-06 20:01 32.11312 35.81754 17759 ft 418 kts 294°
2026-05-06 20:01 32.12620 35.78741 17469 ft 419 kts 294°
2026-05-06 20:02 32.13957 35.75633 17165 ft 420 kts 294°
2026-05-06 20:02 32.15256 35.72599 16854 ft 419 kts 294°
2026-05-06 20:02 32.16582 35.69490 16543 ft 418 kts 294°
2026-05-06 20:02 32.17866 35.66473 16217 ft 417 kts 294°
2026-05-06 20:03 32.19161 35.63421 15901 ft 415 kts 294°
2026-05-06 20:03 32.20461 35.60334 15574 ft 413 kts 294°
2026-05-06 20:03 32.21733 35.57306 15269 ft 410 kts 294°
2026-05-06 20:03 32.22954 35.54392 14924 ft 393 kts 294°
2026-05-06 20:04 32.24145 35.51559 14584 ft 378 kts 294°
2026-05-06 20:04 32.25296 35.48823 14233 ft 366 kts 294°
2026-05-06 20:04 32.26416 35.46157 13832 ft 357 kts 294°
2026-05-06 20:04 32.27502 35.43553 13425 ft 349 kts 294°
2026-05-06 20:05 32.28765 35.41137 12987 ft 347 kts 309°
2026-05-06 20:05 32.30695 35.39441 12600 ft 349 kts 332°
2026-05-06 20:05 32.32952 35.38426 12237 ft 342 kts 331°
2026-05-06 20:05 32.34941 35.36960 11872 ft 335 kts 328°
2026-05-06 20:06 32.37169 35.36153 11513 ft 339 kts 352°
2026-05-06 20:06 32.39505 35.36445 11180 ft 341 kts 15°
2026-05-06 20:06 32.41590 35.37779 10848 ft 343 kts 38°
2026-05-06 20:06 32.43102 35.39948 10517 ft 343 kts 61°
2026-05-06 20:07 32.43793 35.42607 10310 ft 336 kts 85°
2026-05-06 20:07 32.43565 35.45304 10199 ft 325 kts 109°
2026-05-06 20:07 32.42501 35.47575 10150 ft 311 kts 133°
2026-05-06 20:07 32.40822 35.49055 10115 ft 295 kts 160°
2026-05-06 20:08 32.38890 35.49499 10142 ft 276 kts 187°
2026-05-06 20:08 32.37143 35.48893 10143 ft 259 kts 216°
2026-05-06 20:08 32.35930 35.47414 10140 ft 242 kts 246°
2026-05-06 20:08 32.35593 35.45574 10142 ft 229 kts 278°
2026-05-06 20:09 32.36157 35.43894 10134 ft 218 kts 311°
2026-05-06 20:09 32.37398 35.42897 9948 ft 221 kts 337°
2026-05-06 20:09 32.38905 35.42516 9656 ft 228 kts
2026-05-06 20:09 32.40401 35.43025 9835 ft 214 kts 21°
2026-05-06 20:10 32.41756 35.43753 10290 ft 217 kts 24°
2026-05-06 20:10 32.43132 35.44584 10279 ft 226 kts 31°
2026-05-06 20:10 32.44379 35.45729 10011 ft 227 kts 39°
2026-05-06 20:10 32.45572 35.46953 9676 ft 226 kts 40°
2026-05-06 20:11 32.46492 35.48441 9360 ft 227 kts 70°
2026-05-06 20:11 32.46891 35.50207 9187 ft 219 kts 84°
2026-05-06 20:11 32.46624 35.51926 8983 ft 212 kts 122°
2026-05-06 20:11 32.45584 35.53096 8831 ft 208 kts 160°
2026-05-06 20:12 32.44182 35.53303 8596 ft 207 kts 196°
2026-05-06 20:12 32.42918 35.52567 8268 ft 201 kts 220°
2026-05-06 20:12 32.41813 35.51557 7860 ft 200 kts 220°
2026-05-06 20:12 32.40714 35.50544 7444 ft 200 kts 220°
2026-05-06 20:13 32.39632 35.49528 7048 ft 195 kts 221°
2026-05-06 20:13 32.38595 35.48533 6636 ft 189 kts 221°
2026-05-06 20:13 32.37920 35.47873 6345 ft 190 kts 221°
2026-05-06 20:13 32.36915 35.46876 6021 ft 185 kts 221°
2026-05-06 20:14 32.35599 35.45541 5917 ft 206 kts 222°
2026-05-06 20:14 32.34841 35.44758 5911 ft 216 kts 222°
2026-05-06 20:14 32.33730 35.43593 5837 ft 213 kts 223°
2026-05-06 20:14 32.32632 35.42418 5750 ft 211 kts 223°
2026-05-06 20:15 32.31567 35.41249 5641 ft 212 kts 223°
2026-05-06 20:15 32.30578 35.39973 5560 ft 211 kts 240°
2026-05-06 20:15 32.30028 35.38365 5488 ft 211 kts 249°
2026-05-06 20:15 32.29535 35.36732 5443 ft 211 kts 251°
2026-05-06 20:16 32.29058 35.35089 5371 ft 211 kts 251°
2026-05-06 20:16 32.28582 35.33450 5287 ft 211 kts 250°
2026-05-06 20:16 32.28032 35.31845 5201 ft 210 kts 246°
2026-05-06 20:16 32.27426 35.30270 5099 ft 210 kts 246°
2026-05-06 20:17 32.26845 35.28681 5019 ft 210 kts 246°
2026-05-06 20:17 32.26260 35.27097 4941 ft 211 kts 246°
2026-05-06 20:17 32.25664 35.25521 4855 ft 210 kts 246°
2026-05-06 20:17 32.25067 35.23948 4736 ft 209 kts 246°
2026-05-06 20:18 32.24496 35.22430 4543 ft 198 kts 246°
2026-05-06 20:18 32.23941 35.20941 4363 ft 198 kts 247°
2026-05-06 20:18 32.23385 35.19450 4196 ft 199 kts 247°
2026-05-06 20:18 32.22828 35.17960 4023 ft 197 kts 247°
2026-05-06 20:19 32.22276 35.16494 3956 ft 191 kts 247°
2026-05-06 20:19 32.21735 35.15054 3877 ft 193 kts 247°
2026-05-06 20:19 32.21189 35.13603 3796 ft 192 kts 247°
2026-05-06 20:19 32.20646 35.12159 3715 ft 193 kts 248°
2026-05-06 20:20 32.20110 35.10726 3651 ft 193 kts 247°
2026-05-06 20:20 32.19567 35.09277 3583 ft 193 kts 247°
2026-05-06 20:20 32.19035 35.07869 3498 ft 177 kts 248°
2026-05-06 20:20 32.18542 35.06566 3418 ft 175 kts 248°
2026-05-06 20:21 32.18050 35.05257 3241 ft 172 kts 248°
2026-05-06 20:21 32.17570 35.03969 3145 ft 172 kts 248°
2026-05-06 20:21 32.17083 35.02676 3077 ft 174 kts 248°
2026-05-06 20:21 32.16588 35.01366 2838 ft 173 kts 247°
2026-05-06 20:22 32.16073 35.00085 2606 ft 173 kts 242°
2026-05-06 20:22 32.15296 34.99007 2440 ft 171 kts 224°
2026-05-06 20:22 32.14368 34.98115 2369 ft 174 kts 214°
2026-05-06 20:22 32.13323 34.97403 2344 ft 173 kts 211°
2026-05-06 20:23 32.12315 34.96792 2287 ft 158 kts 206°
2026-05-06 20:23 32.11329 34.96213 2295 ft 156 kts 208°
2026-05-06 20:23 32.10366 34.95595 2170 ft 160 kts 210°
2026-05-06 20:23 32.09409 34.94949 1938 ft 157 kts 211°
2026-05-06 20:24 32.08465 34.94315 1703 ft 155 kts 210°
2026-05-06 20:24 32.07525 34.93703 1428 ft 154 kts 209°
2026-05-06 20:24 32.06587 34.93104 1159 ft 153 kts 208°
2026-05-06 20:24 32.05658 34.92510 935 ft 151 kts 209°
2026-05-06 20:25 32.04745 34.91909 795 ft 150 kts 210°
2026-05-06 20:25 32.03842 34.91306 652 ft 146 kts 209°
2026-05-06 20:25 32.02963 34.90739 415 ft 143 kts 207°
2026-05-06 20:25 32.02087 34.90188 237 ft 143 kts 206°
2026-05-06 20:26 32.01217 34.89635 137 ft 137 kts 207°
2026-05-06 20:26 32.00486 34.89185 122 ft 88 kts 216°
2026-05-06 20:26 32.00198 34.88930 123 ft 32 kts 232°
2026-05-06 20:26 32.00118 34.88790 122 ft 14 kts 238°
2026-05-06 20:27 32.00086 34.88688 124 ft 12 kts 271°
2026-05-06 20:27 32.00113 34.88609 124 ft 10 kts 300°
2026-05-06 20:27 32.00146 34.88545 121 ft 9 kts 302°
2026-05-06 20:27 32.00217 34.88411 122 ft 31 kts 302°
2026-05-06 20:28 32.00327 34.88200 120 ft 30 kts 302°
2026-05-06 20:28 32.00431 34.87998 121 ft 28 kts 301°
2026-05-06 20:28 32.00530 34.87807 122 ft 27 kts 301°
2026-05-06 20:28 32.00626 34.87625 122 ft 25 kts 301°
2026-05-06 20:29 32.00715 34.87453 122 ft 24 kts 302°
2026-05-06 20:29 32.00798 34.87293 122 ft 20 kts 302°
2026-05-06 20:29 32.00847 34.87196 125 ft 10 kts 301°
2026-05-06 20:29 32.00871 34.87150 122 ft 5 kts 302°
2026-05-06 20:30 32.00883 34.87120 122 ft 3 kts 285°
2026-05-06 20:30 32.00861 34.87073 122 ft 4 kts 219°
2026-05-06 20:30 32.00846 34.87056 122 ft 2 kts 227°
2026-05-06 20:31 32.00844 34.87041 122 ft 2 kts 264°
2026-05-06 20:31 32.00855 34.87020 123 ft 4 kts 305°
2026-05-06 20:31 32.00865 34.86986 122 ft 2 kts 298°
2026-05-06 20:31 32.00870 34.86978 122 ft 2 kts 307°
2026-05-06 20:32 32.00875 34.86967 121 ft 2 kts 300°